Regional Weather Roundup
Issued by NWS

Home | Current Version | Previous Version | Graphics & Text | Print | Product List | Glossary On
Versions: 1 2 3 4 5 6 7 8 9 10 11 12 13 14 15 16 17 18 19 20 21 22 23 24 25 26 27 28 29 30 31 32 33 34 35 36 37 38 39 40 41 42 43 44 45 46 47 48 49 50
000
ASUS43 KIND 281109
RWRIN

WEATHER ROUNDUP FOR INDIANA
NATIONAL WEATHER SERVICE INDIANAPOLIS IN
700 AM EDT MON JUL 28 2014

NOTE: "FAIR" INDICATES FEW OR NO CLOUDS BELOW 12,000 FEET WITH NO
SIGNIFICANT WEATHER AND/OR OBSTRUCTIONS TO VISIBILITY.

* - STATION DOES NOT REPORT WEATHER SUCH AS PRECIPITATION OR FOG.

+ - STATION NOT QUALITY CONTROLLED BY THE NATIONAL WEATHER SERVICE.
    USE DATA WITH CAUTION...ESPECIALLY DEWPOINT AND RELATIVE
    HUMIDITY OBSERVATIONS.

INZ001>003-010>013-019-020-281200-
NORTHWEST INDIANA

CITY           SKY/WX    TMP DP  RH WIND       PRES   REMARKS
GARY /AIRPORT/ MOCLDY    63  54  72 N20       29.97R
KNOX *+        CLOUDY    61  55  80 N9        29.94R
LA PORTE +     CLOUDY    59  55  84 N14       29.95R
MICHIGAN CITY+ CLOUDY    59  52  77 N15G21    29.96R
MONTICELLO +   CLOUDY    59  55  87 NW9G20    29.93R
RENSSELAER +   CLOUDY    61  55  82 NW6       29.96R
VALPARAISO     CLOUDY    60  54  80 N10G21    29.96R

$$

LMZ046-743>745-281200-
SOUTHERN LAKE MICHIGAN

STATION/POSITION TIME  TEMP WIND        PRES
                       AIR  DIR/SP/G
                 (UTC) (F)  (DEG/KT/KT) (MB)
MICHIGAN CITY    1100   61  330/ 26/ 31   N/A

$$

INZ004-005-014>016-021>024-281200-
NORTH CENTRAL INDIANA

CITY           SKY/WX    TMP DP  RH WIND       PRES   REMARKS
ELKHART        CLOUDY    59  55  88 NW8       29.92
GOSHEN         CLOUDY    62  58  86 NW9       29.90R
LOGANSPORT +   CLOUDY    61  54  77 NW10      29.93R
PERU/GRISSOM   CLOUDY    63  62  97 NW10      29.91R
ROCHESTER +    CLOUDY    64  59  82 NW12      29.92R
SOUTH BEND     MOCLDY    60  55  83 NW12      29.93R
WARSAW +       CLOUDY    61  59  94 NW8       29.91R

$$

INZ006>009-017-018-025>027-281200-
NORTHEAST INDIANA

CITY           SKY/WX    TMP DP  RH WIND       PRES   REMARKS
ANGOLA *+      CLOUDY    63  54  72 NW7       29.87R
AUBURN +       CLOUDY    63  57  82 NW7       29.88R
FORT WAYNE     CLOUDY    63  59  87 W7        29.88R
HUNTINGTON +   CLOUDY    62  59  89 W5        29.89R

$$

INZ028-029-035-036-043>045-051>053-281200-
WEST CENTRAL INDIANA

CITY           SKY/WX    TMP DP  RH WIND       PRES   REMARKS
GREENCASTLE +  PTCLDY    61  55  82 NW9       29.95R
LAFAYETTE      CLEAR     58  54  86 NW8       29.94R
TERRE HAUTE    CLEAR     62  58  86 NW8       29.96R

$$

INZ030>032-037>040-046>048-054>057-064-065-281200-
CENTRAL INDIANA

CITY           SKY/WX    TMP DP  RH WIND       PRES   REMARKS
CP ATTERBURY + CLOUDY    63  57  82 NW8       29.92R
COLUMBUS       CLOUDY    63  59  88 CALM      29.92
GREENWOOD *+   CLOUDY    66  61  82 NW16G24   29.93
INDIANAPOLIS   CLOUDY    63  56  78 NW13      29.92R
-EAGLE CREEK   CLOUDY    63  55  75 NW10G20   29.92R
KOKOMO *+      CLOUDY    63  57  82 NW13      29.91R
MARION +       CLOUDY    60  58  94 NW5       29.91R
MT COMFORT *+  CLOUDY    63  63 100 NW14      29.92R
SHELBYVILLE    CLOUDY    66  58  75 NW12      29.90R
ZIONSVILLE +   CLOUDY    63  55  77 NW10      29.93R

$$

INZ033-034-041-042-049-050-058-059-281200-
EAST CENTRAL INDIANA

CITY           SKY/WX    TMP DP  RH WIND       PRES   REMARKS
MUNCIE         CLOUDY    62  58  86 NW9       29.90R

$$

INZ060-061-067>069-081>083-085>088-281200-
SOUTHWEST INDIANA

CITY           SKY/WX    TMP DP  RH WIND       PRES   REMARKS
EVANSVILLE     CLEAR     65  59  81 W7        29.97R
WASHINGTON +   CLEAR     62  61  97 NW7       29.95R

$$

INZ062-063-066-070>080-084-089>092-281200-
SOUTH CENTRAL AND SOUTHEAST INDIANA

CITY           SKY/WX    TMP DP  RH WIND       PRES   REMARKS
BLOOMINGTON    CLOUDY    63  59  87 NW5       29.94R
NORTH VERNON + PTCLDY    63  63 100 W6        29.91

$$



USA.gov is the U.S. government's official web portal to all federal, state and local government web resources and services.